Time,TemperatureF,DewpointF,PressureIn,WindDirection,WindDirectionDegrees,WindSpeedMPH,WindSpeedGustMPH,Humidity,HourlyPrecipIn,Conditions,Clouds,dailyrainin,SoftwareType,DateUTC
2013-04-05 00:00:00,26.1,21.4,29.97,SE,146,0.0,0.0,82,0.00,,,0.00,LWC V2.11 B50,2013-04-05 04:00:00,
2013-04-05 00:01:00,26.1,21.4,29.97,SSE,147,0.0,0.0,82,0.00,,,0.00,LWC V2.11 B50,2013-04-05 04:01:00,
2013-04-05 00:03:00,26.0,21.3,29.97,SE,146,0.0,0.0,82,0.00,,,0.00,LWC V2.11 B50,2013-04-05 04:03:00,
2013-04-05 00:08:00,25.6,20.9,29.97,SE,146,0.0,0.0,82,0.00,,,0.00,LWC V2.11 B50,2013-04-05 04:08:00,
2013-04-05 00:13:00,25.3,20.9,29.97,SE,146,0.0,0.0,83,0.00,,,0.00,LWC V2.11 B50,2013-04-05 04:13:00,
2013-04-05 00:18:00,25.3,20.9,29.97,SE,146,0.0,0.0,83,0.00,,,0.00,LWC V2.11 B50,2013-04-05 04:18:00,
2013-04-05 00:23:00,25.4,20.7,29.97,SE,146,0.0,0.0,82,0.00,,,0.00,LWC V2.11 B50,2013-04-05 04:23:00,
2013-04-05 00:28:00,25.5,20.5,29.97,SE,146,0.0,0.0,81,0.00,,,0.00,LWC V2.11 B50,2013-04-05 04:28:00,
2013-04-05 00:33:00,25.5,20.5,29.97,SE,146,0.0,0.0,81,0.00,,,0.00,LWC V2.11 B50,2013-04-05 04:33:00,
2013-04-05 00:38:00,25.8,20.8,29.97,SE,146,0.0,0.0,81,0.00,,,0.00,LWC V2.11 B50,2013-04-05 04:38:00,
2013-04-05 00:43:00,26.0,20.7,29.97,SSE,147,0.0,0.0,80,0.00,,,0.00,LWC V2.11 B50,2013-04-05 04:43:00,
2013-04-05 00:48:00,26.0,20.1,29.97,SSE,147,0.0,0.0,78,0.00,,,0.00,LWC V2.11 B50,2013-04-05 04:48:00,
2013-04-05 00:53:00,25.7,20.7,29.97,SSE,157,0.0,1.0,81,0.00,,,0.00,LWC V2.11 B50,2013-04-05 04:53:00,
2013-04-05 00:58:00,25.8,21.1,29.97,SSE,155,0.0,0.0,82,0.00,,,0.00,LWC V2.11 B50,2013-04-05 04:58:00,
2013-04-05 01:03:00,25.9,21.2,29.97,SSE,158,1.0,1.0,82,0.00,,,0.00,LWC V2.11 B50,2013-04-05 05:03:00,
2013-04-05 01:08:00,26.1,21.4,29.97,SSE,159,0.0,0.0,82,0.00,,,0.00,LWC V2.11 B50,2013-04-05 05:08:00,
2013-04-05 01:13:00,26.1,21.1,29.97,SSE,159,0.0,0.0,81,0.00,,,0.00,LWC V2.11 B50,2013-04-05 05:13:00,
2013-04-05 01:18:00,25.8,21.1,29.97,SE,142,0.0,0.0,82,0.00,,,0.00,LWC V2.11 B50,2013-04-05 05:18:00,
2013-04-05 01:23:00,25.6,21.2,29.97,SE,144,0.0,0.0,83,0.00,,,0.00,LWC V2.11 B50,2013-04-05 05:23:00,
2013-04-05 01:28:00,25.4,21.3,29.97,SE,143,0.0,0.0,84,0.00,,,0.00,LWC V2.11 B50,2013-04-05 05:28:00,
2013-04-05 01:33:00,25.3,21.2,29.97,SE,134,0.0,0.0,84,0.00,,,0.00,LWC V2.11 B50,2013-04-05 05:33:00,
2013-04-05 01:38:00,25.2,21.1,29.96,SE,134,0.0,0.0,84,0.00,,,0.00,LWC V2.11 B50,2013-04-05 05:38:00,
2013-04-05 01:43:00,25.3,21.4,29.96,SE,132,0.0,0.0,85,0.00,,,0.00,LWC V2.11 B50,2013-04-05 05:43:00,
2013-04-05 01:48:00,25.1,21.2,29.96,SE,134,0.0,0.0,85,0.00,,,0.00,LWC V2.11 B50,2013-04-05 05:48:00,
2013-04-05 01:53:00,24.7,20.8,29.96,SE,134,0.0,0.0,85,0.00,,,0.00,LWC V2.11 B50,2013-04-05 05:53:00,
2013-04-05 01:58:00,24.3,20.7,29.96,SE,134,0.0,0.0,86,0.00,,,0.00,LWC V2.11 B50,2013-04-05 05:58:00,
2013-04-05 02:03:00,23.9,20.3,29.96,SE,134,0.0,0.0,86,0.00,,,0.00,LWC V2.11 B50,2013-04-05 06:03:00,
2013-04-05 02:08:00,23.4,19.8,29.95,SE,134,0.0,0.0,86,0.00,,,0.00,LWC V2.11 B50,2013-04-05 06:08:00,
2013-04-05 02:13:00,23.1,19.8,29.95,SE,134,0.0,0.0,87,0.00,,,0.00,LWC V2.11 B50,2013-04-05 06:13:00,
2013-04-05 02:18:00,22.7,19.4,29.95,SE,134,0.0,0.0,87,0.00,,,0.00,LWC V2.11 B50,2013-04-05 06:18:00,
2013-04-05 02:23:00,22.7,19.7,29.95,SE,134,0.0,0.0,88,0.00,,,0.00,LWC V2.11 B50,2013-04-05 06:23:00,
2013-04-05 02:28:00,23.1,20.4,29.95,SE,134,0.0,0.0,89,0.00,,,0.00,LWC V2.11 B50,2013-04-05 06:28:00,
2013-04-05 02:33:00,23.1,20.1,29.95,SE,134,0.0,0.0,88,0.00,,,0.00,LWC V2.11 B50,2013-04-05 06:33:00,
2013-04-05 02:38:00,22.9,19.9,29.94,SE,134,0.0,0.0,88,0.00,,,0.00,LWC V2.11 B50,2013-04-05 06:38:00,
2013-04-05 02:43:00,22.6,19.6,29.94,SE,134,0.0,0.0,88,0.00,,,0.00,LWC V2.11 B50,2013-04-05 06:43:00,
2013-04-05 02:48:00,22.4,19.7,29.94,SE,134,0.0,0.0,89,0.00,,,0.00,LWC V2.11 B50,2013-04-05 06:48:00,
2013-04-05 02:53:00,22.3,19.6,29.94,SE,134,0.0,0.0,89,0.00,,,0.00,LWC V2.11 B50,2013-04-05 06:53:00,
2013-04-05 02:58:00,22.3,19.6,29.94,SE,134,0.0,0.0,89,0.00,,,0.00,LWC V2.11 B50,2013-04-05 06:58:00,
2013-04-05 03:03:00,22.6,19.9,29.94,SE,134,0.0,0.0,89,0.00,,,0.00,LWC V2.11 B50,2013-04-05 07:03:00,
2013-04-05 03:08:00,22.5,19.8,29.93,SE,134,0.0,0.0,89,0.00,,,0.00,LWC V2.11 B50,2013-04-05 07:08:00,
2013-04-05 03:13:00,22.4,19.7,29.94,SE,134,0.0,0.0,89,0.00,,,0.00,LWC V2.11 B50,2013-04-05 07:13:00,
2013-04-05 03:18:00,22.4,19.7,29.94,SE,134,0.0,0.0,89,0.00,,,0.00,LWC V2.11 B50,2013-04-05 07:18:00,
2013-04-05 03:23:00,22.5,19.8,29.93,NNW,329,0.0,0.0,89,0.00,,,0.00,LWC V2.11 B50,2013-04-05 07:23:00,
2013-04-05 03:28:00,22.5,19.8,29.93,NNW,329,0.0,0.0,89,0.00,,,0.00,LWC V2.11 B50,2013-04-05 07:28:00,
2013-04-05 03:33:00,22.4,19.4,29.93,NNW,328,0.0,0.0,88,0.00,,,0.00,LWC V2.11 B50,2013-04-05 07:33:00,
2013-04-05 03:38:00,22.1,19.1,29.93,NNW,329,0.0,0.0,88,0.00,,,0.00,LWC V2.11 B50,2013-04-05 07:38:00,
2013-04-05 03:43:00,21.9,18.9,29.93,NNW,328,0.0,0.0,88,0.00,,,0.00,LWC V2.11 B50,2013-04-05 07:43:00,
2013-04-05 03:48:00,21.8,18.8,29.93,NNW,328,0.0,0.0,88,0.00,,,0.00,LWC V2.11 B50,2013-04-05 07:48:00,
2013-04-05 03:53:00,21.7,19.0,29.93,NNW,329,0.0,0.0,89,0.00,,,0.00,LWC V2.11 B50,2013-04-05 07:53:00,
2013-04-05 03:58:00,21.5,18.8,29.93,NNW,329,0.0,0.0,89,0.00,,,0.00,LWC V2.11 B50,2013-04-05 07:58:00,
2013-04-05 04:03:00,21.3,18.6,29.93,NNW,329,0.0,0.0,89,0.00,,,0.00,LWC V2.11 B50,2013-04-05 08:03:00,
2013-04-05 04:08:00,21.4,18.9,29.93,NNW,328,0.0,0.0,90,0.00,,,0.00,LWC V2.11 B50,2013-04-05 08:08:00,
2013-04-05 04:13:00,21.4,18.9,29.94,NNW,329,0.0,0.0,90,0.00,,,0.00,LWC V2.11 B50,2013-04-05 08:13:00,
2013-04-05 04:18:00,21.4,18.9,29.94,NNW,328,0.0,0.0,90,0.00,,,0.00,LWC V2.11 B50,2013-04-05 08:18:00,
2013-04-05 04:23:00,21.5,19.0,29.94,NNW,329,0.0,0.0,90,0.00,,,0.00,LWC V2.11 B50,2013-04-05 08:23:00,
2013-04-05 04:28:00,21.6,19.1,29.94,NNW,328,0.0,0.0,90,0.00,,,0.00,LWC V2.11 B50,2013-04-05 08:28:00,
2013-04-05 04:33:00,21.7,19.2,29.95,NNW,329,0.0,0.0,90,0.00,,,0.00,LWC V2.11 B50,2013-04-05 08:33:00,
2013-04-05 04:38:00,22.0,19.5,29.95,North,353,0.0,1.0,90,0.00,,,0.00,LWC V2.11 B50,2013-04-05 08:38:00,
2013-04-05 04:43:00,22.1,19.4,29.95,North,359,0.0,0.0,89,0.00,,,0.00,LWC V2.11 B50,2013-04-05 08:43:00,
2013-04-05 04:48:00,21.8,18.8,29.95,SE,138,0.0,0.0,88,0.00,,,0.00,LWC V2.11 B50,2013-04-05 08:48:00,
2013-04-05 04:53:00,21.5,18.8,29.95,SE,138,0.0,0.0,89,0.00,,,0.00,LWC V2.11 B50,2013-04-05 08:53:00,
2013-04-05 04:58:00,21.6,18.9,29.95,SE,139,0.0,0.0,89,0.00,,,0.00,LWC V2.11 B50,2013-04-05 08:58:00,
2013-04-05 05:03:00,22.2,19.7,29.95,SE,139,0.0,0.0,90,0.00,,,0.00,LWC V2.11 B50,2013-04-05 09:03:00,
2013-04-05 05:08:00,22.9,20.4,29.95,SE,140,0.0,0.0,90,0.00,,,0.00,LWC V2.11 B50,2013-04-05 09:08:00,
2013-04-05 05:13:00,22.9,20.2,29.95,SE,140,0.0,0.0,89,0.00,,,0.00,LWC V2.11 B50,2013-04-05 09:13:00,
2013-04-05 05:18:00,23.1,20.4,29.95,East,86,0.0,1.0,89,0.00,,,0.00,LWC V2.11 B50,2013-04-05 09:18:00,
2013-04-05 05:24:00,23.5,20.7,29.95,East,82,0.0,0.0,89,0.00,,,0.00,LWC V2.11 B50,2013-04-05 09:24:00,
2013-04-05 05:30:00,23.8,21.0,29.95,East,82,0.0,0.0,89,0.00,,,0.00,LWC V2.11 B50,2013-04-05 09:30:00,
2013-04-05 05:35:00,24.1,21.3,29.95,East,83,0.0,0.0,89,0.00,,,0.00,LWC V2.11 B50,2013-04-05 09:35:00,
2013-04-05 05:40:00,24.7,21.9,29.95,SSE,148,0.0,0.0,89,0.00,,,0.00,LWC V2.11 B50,2013-04-05 09:40:00,
2013-04-05 05:46:00,25.3,22.5,29.95,SSE,147,0.0,0.0,89,0.00,,,0.00,LWC V2.11 B50,2013-04-05 09:46:00,
2013-04-05 05:51:00,25.7,22.6,29.96,SE,146,0.0,0.0,88,0.00,,,0.00,LWC V2.11 B50,2013-04-05 09:51:00,
2013-04-05 05:56:00,25.9,22.8,29.96,SE,146,0.0,0.0,88,0.00,,,0.00,LWC V2.11 B50,2013-04-05 09:56:00,
2013-04-05 06:01:00,26.1,23.0,29.96,SSE,147,0.0,0.0,88,0.00,,,0.00,LWC V2.11 B50,2013-04-05 10:01:00,
2013-04-05 06:06:00,26.2,23.1,29.96,SSE,147,0.0,0.0,88,0.00,,,0.00,LWC V2.11 B50,2013-04-05 10:06:00,
2013-04-05 06:11:00,26.4,23.3,29.96,SE,146,0.0,0.0,88,0.00,,,0.00,LWC V2.11 B50,2013-04-05 10:11:00,
2013-04-05 06:16:00,26.5,23.4,29.96,SE,146,0.0,0.0,88,0.00,,,0.00,LWC V2.11 B50,2013-04-05 10:16:00,
2013-04-05 06:21:00,26.6,23.5,29.96,SE,146,0.0,0.0,88,0.00,,,0.00,LWC V2.11 B50,2013-04-05 10:21:00,
2013-04-05 06:27:00,26.7,23.6,29.96,SE,146,0.0,0.0,88,0.00,,,0.00,LWC V2.11 B50,2013-04-05 10:27:00,
2013-04-05 06:32:00,26.8,23.7,29.97,SE,146,0.0,0.0,88,0.00,,,0.00,LWC V2.11 B50,2013-04-05 10:32:00,
2013-04-05 06:37:00,27.0,24.2,29.97,SSE,147,0.0,0.0,89,0.00,,,0.00,LWC V2.11 B50,2013-04-05 10:37:00,
2013-04-05 06:42:00,27.1,24.0,29.97,SSE,147,0.0,0.0,88,0.00,,,0.00,LWC V2.11 B50,2013-04-05 10:42:00,
2013-04-05 06:47:00,27.1,24.3,29.97,SE,146,0.0,0.0,89,0.00,,,0.00,LWC V2.11 B50,2013-04-05 10:47:00,
2013-04-05 06:52:00,27.3,24.5,29.97,SE,146,0.0,0.0,89,0.00,,,0.00,LWC V2.11 B50,2013-04-05 10:52:00,
2013-04-05 06:57:00,27.4,24.6,29.97,SSE,147,0.0,0.0,89,0.00,,,0.00,LWC V2.11 B50,2013-04-05 10:57:00,
2013-04-05 07:02:00,27.4,24.3,29.98,SSE,147,0.0,0.0,88,0.00,,,0.00,LWC V2.11 B50,2013-04-05 11:02:00,
2013-04-05 07:07:00,27.4,24.3,29.98,SE,146,0.0,0.0,88,0.00,,,0.00,LWC V2.11 B50,2013-04-05 11:07:00,
2013-04-05 07:12:00,27.3,24.0,29.98,SSE,147,0.0,0.0,87,0.00,,,0.00,LWC V2.11 B50,2013-04-05 11:12:00,
2013-04-05 07:18:00,27.3,24.0,29.99,SE,146,0.0,0.0,87,0.00,,,0.00,LWC V2.11 B50,2013-04-05 11:18:00,
2013-04-05 07:23:00,27.3,24.0,29.99,SSE,147,0.0,0.0,87,0.00,,,0.00,LWC V2.11 B50,2013-04-05 11:23:00,
2013-04-05 07:28:00,27.5,24.1,30.00,SSE,147,0.0,0.0,87,0.00,,,0.00,LWC V2.11 B50,2013-04-05 11:28:00,
2013-04-05 07:33:00,27.8,24.4,30.00,SE,146,0.0,0.0,87,0.00,,,0.00,LWC V2.11 B50,2013-04-05 11:33:00,
2013-04-05 07:38:00,28.0,24.6,30.00,SE,146,0.0,0.0,87,0.00,,,0.00,LWC V2.11 B50,2013-04-05 11:38:00,
2013-04-05 07:43:00,28.2,24.8,30.00,SE,146,0.0,0.0,87,0.00,,,0.00,LWC V2.11 B50,2013-04-05 11:43:00,
2013-04-05 07:48:00,28.4,25.0,30.00,SSE,147,0.0,0.0,87,0.00,,,0.00,LWC V2.11 B50,2013-04-05 11:48:00,
2013-04-05 07:54:00,28.7,25.6,30.00,SE,146,0.0,0.0,88,0.00,,,0.00,LWC V2.11 B50,2013-04-05 11:54:00,
2013-04-05 07:59:00,29.0,25.9,30.01,SSE,167,0.0,0.0,88,0.00,,,0.00,LWC V2.11 B50,2013-04-05 11:59:00,
2013-04-05 08:04:00,29.4,26.3,30.01,SSE,167,0.0,0.0,88,0.00,,,0.00,LWC V2.11 B50,2013-04-05 12:04:00,
2013-04-05 08:10:00,30.1,27.0,30.01,ENE,77,0.0,0.0,88,0.00,,,0.00,LWC V2.11 B50,2013-04-05 12:10:00,
2013-04-05 08:15:00,30.6,27.5,30.01,NNE,13,0.0,1.0,88,0.00,,,0.00,LWC V2.11 B50,2013-04-05 12:15:00,
2013-04-05 08:20:00,31.3,27.6,30.01,WNW,297,0.0,1.0,86,0.00,,,0.00,LWC V2.11 B50,2013-04-05 12:20:00,
2013-04-05 08:25:00,32.5,27.9,30.01,NW,305,0.0,1.0,83,0.00,,,0.00,LWC V2.11 B50,2013-04-05 12:25:00,
2013-04-05 08:30:00,33.7,28.5,30.01,NNW,338,0.0,1.0,81,0.00,,,0.00,LWC V2.11 B50,2013-04-05 12:30:00,
2013-04-05 08:35:00,34.7,29.5,30.01,NNW,339,0.0,0.0,81,0.00,,,0.00,LWC V2.11 B50,2013-04-05 12:35:00,
2013-04-05 08:40:00,35.4,29.2,30.01,NNW,327,2.0,2.0,78,0.00,,,0.00,LWC V2.11 B50,2013-04-05 12:40:00,
2013-04-05 08:45:00,35.9,29.7,30.01,North,359,0.0,1.0,78,0.00,,,0.00,LWC V2.11 B50,2013-04-05 12:45:00,
2013-04-05 08:50:00,36.7,30.2,30.01,North,356,1.0,1.0,77,0.00,,,0.00,LWC V2.11 B50,2013-04-05 12:50:00,
2013-04-05 08:55:00,37.2,30.0,30.01,NE,40,0.0,0.0,75,0.00,,,0.00,LWC V2.11 B50,2013-04-05 12:55:00,
2013-04-05 09:00:00,37.8,30.6,30.01,WNW,288,0.0,0.0,75,0.00,,,0.00,LWC V2.11 B50,2013-04-05 13:00:00,
2013-04-05 09:05:00,38.2,30.7,30.01,NE,48,0.0,2.0,74,0.00,,,0.00,LWC V2.11 B50,2013-04-05 13:05:00,
2013-04-05 09:10:00,38.7,31.5,30.01,ENE,68,0.0,1.0,75,0.00,,,0.00,LWC V2.11 B50,2013-04-05 13:10:00,
2013-04-05 09:16:00,39.0,31.1,30.01,ENE,71,0.0,5.0,73,0.00,,,0.00,LWC V2.11 B50,2013-04-05 13:16:00,
2013-04-05 09:21:00,39.3,31.4,30.01,NNW,335,2.0,4.0,73,0.00,,,0.00,LWC V2.11 B50,2013-04-05 13:21:00,
2013-04-05 09:27:00,39.8,31.5,30.01,NNW,329,4.0,5.0,72,0.00,,,0.00,LWC V2.11 B50,2013-04-05 13:27:00,
2013-04-05 09:32:00,39.5,30.9,30.01,ENE,77,1.0,7.0,71,0.00,,,0.00,LWC V2.11 B50,2013-04-05 13:32:00,
2013-04-05 09:37:00,39.5,31.2,30.01,NNW,340,4.0,7.0,72,0.00,,,0.00,LWC V2.11 B50,2013-04-05 13:37:00,
2013-04-05 09:42:00,39.8,31.5,30.01,NNW,346,0.0,2.0,72,0.00,,,0.00,LWC V2.11 B50,2013-04-05 13:42:00,
2013-04-05 09:47:00,40.2,31.9,30.01,NNW,332,1.0,5.0,72,0.00,,,0.00,LWC V2.11 B50,2013-04-05 13:47:00,
2013-04-05 09:52:00,40.9,32.2,30.02,NW,318,2.0,5.0,71,0.00,,,0.00,LWC V2.11 B50,2013-04-05 13:52:00,
2013-04-05 09:57:00,41.6,31.5,30.02,NNW,340,4.0,11.0,67,0.00,,,0.00,LWC V2.11 B50,2013-04-05 13:57:00,
2013-04-05 10:02:00,41.7,32.6,30.02,NW,322,6.0,6.0,70,0.00,,,0.00,LWC V2.11 B50,2013-04-05 14:02:00,
2013-04-05 10:07:00,41.3,31.9,30.02,NE,49,1.0,7.0,69,0.00,,,0.00,LWC V2.11 B50,2013-04-05 14:07:00,
2013-04-05 10:12:00,41.4,32.0,30.02,NNW,340,8.0,8.0,69,0.00,,,0.00,LWC V2.11 B50,2013-04-05 14:12:00,
2013-04-05 10:17:00,41.2,31.8,30.02,NNW,338,8.0,14.0,69,0.00,,,0.00,LWC V2.11 B50,2013-04-05 14:17:00,
2013-04-05 10:22:00,41.0,31.6,30.03,NW,325,9.0,12.0,69,0.00,,,0.00,LWC V2.11 B50,2013-04-05 14:22:00,
2013-04-05 10:27:00,41.0,31.6,30.03,NW,316,5.0,9.0,69,0.00,,,0.00,LWC V2.11 B50,2013-04-05 14:27:00,
2013-04-05 10:32:00,41.0,32.0,30.03,NNW,340,6.0,9.0,70,0.00,,,0.00,LWC V2.11 B50,2013-04-05 14:32:00,
2013-04-05 10:38:00,40.7,31.3,30.03,NNW,331,9.0,10.0,69,0.00,,,0.00,LWC V2.11 B50,2013-04-05 14:38:00,
2013-04-05 10:43:00,40.8,31.4,30.03,North,350,11.0,11.0,69,0.00,,,0.00,LWC V2.11 B50,2013-04-05 14:43:00,
2013-04-05 10:48:00,41.2,31.5,30.03,NNW,343,4.0,11.0,68,0.00,,,0.00,LWC V2.11 B50,2013-04-05 14:48:00,
2013-04-05 10:54:00,41.7,31.2,30.03,NNW,341,8.0,9.0,66,0.00,,,0.00,LWC V2.11 B50,2013-04-05 14:54:00,
2013-04-05 11:00:00,41.5,30.6,30.03,North,350,3.0,9.0,65,0.00,,,0.00,LWC V2.11 B50,2013-04-05 15:00:00,
2013-04-05 11:05:00,41.6,30.7,30.03,NNW,333,5.0,9.0,65,0.00,,,0.00,LWC V2.11 B50,2013-04-05 15:05:00,
2013-04-05 11:10:00,41.9,29.8,30.03,NW,318,8.0,11.0,62,0.00,,,0.00,LWC V2.11 B50,2013-04-05 15:10:00,
2013-04-05 11:15:00,42.1,30.0,30.04,NE,37,8.0,8.0,62,0.00,,,0.00,LWC V2.11 B50,2013-04-05 15:15:00,
2013-04-05 11:20:00,42.4,29.1,30.04,North,349,4.0,9.0,59,0.00,,,0.00,LWC V2.11 B50,2013-04-05 15:20:00,
2013-04-05 11:26:00,42.4,29.1,30.04,WNW,300,4.0,5.0,59,0.00,,,0.00,LWC V2.11 B50,2013-04-05 15:26:00,
2013-04-05 11:31:00,42.8,29.5,30.03,NNW,334,5.0,7.0,59,0.00,,,0.00,LWC V2.11 B50,2013-04-05 15:31:00,
2013-04-05 11:36:00,42.4,28.3,30.04,NNW,337,11.0,12.0,57,0.00,,,0.00,LWC V2.11 B50,2013-04-05 15:36:00,
2013-04-05 11:42:00,42.6,28.4,30.04,WNW,298,3.0,10.0,57,0.00,,,0.00,LWC V2.11 B50,2013-04-05 15:42:00,
2013-04-05 11:47:00,43.0,29.2,30.04,NW,326,4.0,10.0,58,0.00,,,0.00,LWC V2.11 B50,2013-04-05 15:47:00,
2013-04-05 11:52:00,42.7,28.5,30.04,NW,319,4.0,9.0,57,0.00,,,0.00,LWC V2.11 B50,2013-04-05 15:52:00,
2013-04-05 11:58:00,42.7,28.5,30.04,NW,322,4.0,11.0,57,0.00,,,0.00,LWC V2.11 B50,2013-04-05 15:58:00,
2013-04-05 12:03:00,42.9,30.0,30.04,NW,306,6.0,11.0,60,0.00,,,0.00,LWC V2.11 B50,2013-04-05 16:03:00,
2013-04-05 12:08:00,43.0,28.8,30.04,NW,312,4.0,11.0,57,0.00,,,0.00,LWC V2.11 B50,2013-04-05 16:08:00,
2013-04-05 12:13:00,43.0,29.7,30.04,NW,316,4.0,8.0,59,0.00,,,0.00,LWC V2.11 B50,2013-04-05 16:13:00,
2013-04-05 12:19:00,43.3,29.5,30.04,NW,323,8.0,10.0,58,0.00,,,0.00,LWC V2.11 B50,2013-04-05 16:19:00,
2013-04-05 12:24:00,43.5,28.9,30.04,NW,313,5.0,13.0,56,0.00,,,0.00,LWC V2.11 B50,2013-04-05 16:24:00,
2013-04-05 12:29:00,43.3,27.3,30.04,NW,313,10.0,15.0,53,0.00,,,0.00,LWC V2.11 B50,2013-04-05 16:29:00,
2013-04-05 12:34:00,43.1,26.2,30.04,WNW,294,3.0,9.0,51,0.00,,,0.00,LWC V2.11 B50,2013-04-05 16:34:00,
2013-04-05 12:39:00,43.3,26.4,30.04,WNW,302,2.0,7.0,51,0.00,,,0.00,LWC V2.11 B50,2013-04-05 16:39:00,
2013-04-05 12:45:00,43.4,27.0,30.05,NW,320,3.0,11.0,52,0.00,,,0.00,LWC V2.11 B50,2013-04-05 16:45:00,
2013-04-05 12:50:00,43.8,26.9,30.04,NW,323,10.0,15.0,51,0.00,,,0.00,LWC V2.11 B50,2013-04-05 16:50:00,
2013-04-05 12:55:00,43.3,25.9,30.05,NNW,340,8.0,14.0,50,0.00,,,0.00,LWC V2.11 B50,2013-04-05 16:55:00,
2013-04-05 13:00:00,42.7,26.3,30.05,NW,324,7.0,15.0,52,0.00,,,0.00,LWC V2.11 B50,2013-04-05 17:00:00,
2013-04-05 13:05:00,42.8,27.3,30.05,NNW,330,9.0,11.0,54,0.00,,,0.00,LWC V2.11 B50,2013-04-05 17:05:00,
2013-04-05 13:10:00,42.8,27.3,30.05,NNW,336,13.0,14.0,54,0.00,,,0.00,LWC V2.11 B50,2013-04-05 17:10:00,
2013-04-05 13:15:00,42.0,25.7,30.05,NNW,333,6.0,14.0,52,0.00,,,0.00,LWC V2.11 B50,2013-04-05 17:15:00,
2013-04-05 13:20:00,42.0,25.7,30.05,NW,316,7.0,13.0,52,0.00,,,0.00,LWC V2.11 B50,2013-04-05 17:20:00,
2013-04-05 13:25:00,42.2,26.3,30.05,NNW,329,7.0,13.0,53,0.00,,,0.00,LWC V2.11 B50,2013-04-05 17:25:00,
2013-04-05 13:30:00,41.9,26.5,30.05,NNW,342,8.0,9.0,54,0.00,,,0.00,LWC V2.11 B50,2013-04-05 17:30:00,
2013-04-05 13:36:00,42.0,26.6,30.05,NNW,339,5.0,11.0,54,0.00,,,0.00,LWC V2.11 B50,2013-04-05 17:36:00,
2013-04-05 13:42:00,42.2,26.3,30.05,NW,307,4.0,11.0,53,0.00,,,0.00,LWC V2.11 B50,2013-04-05 17:42:00,
2013-04-05 13:47:00,42.4,27.4,30.05,NNW,336,6.0,14.0,55,0.00,,,0.00,LWC V2.11 B50,2013-04-05 17:47:00,
2013-04-05 13:52:00,42.2,27.6,30.05,WNW,301,7.0,13.0,56,0.00,,,0.00,LWC V2.11 B50,2013-04-05 17:52:00,
2013-04-05 13:57:00,42.3,27.7,30.05,NW,316,3.0,16.0,56,0.00,,,0.00,LWC V2.11 B50,2013-04-05 17:57:00,
2013-04-05 14:02:00,42.3,27.3,30.05,NNE,30,11.0,13.0,55,0.00,,,0.00,LWC V2.11 B50,2013-04-05 18:02:00,
2013-04-05 14:07:00,42.0,27.5,30.05,North,353,11.0,14.0,56,0.00,,,0.00,LWC V2.11 B50,2013-04-05 18:07:00,
2013-04-05 14:12:00,41.9,28.2,30.05,NNW,329,7.0,7.0,58,0.00,,,0.00,LWC V2.11 B50,2013-04-05 18:12:00,
2013-04-05 14:17:00,42.1,28.0,30.06,NNW,338,4.0,12.0,57,0.00,,,0.00,LWC V2.11 B50,2013-04-05 18:17:00,
2013-04-05 14:22:00,42.5,27.9,30.06,NW,310,7.0,14.0,56,0.00,,,0.00,LWC V2.11 B50,2013-04-05 18:22:00,
2013-04-05 14:27:00,42.2,26.8,30.06,North,11,6.0,16.0,54,0.00,,,0.00,LWC V2.11 B50,2013-04-05 18:27:00,
2013-04-05 14:32:00,42.1,27.1,30.06,NW,309,5.0,6.0,55,0.00,,,0.00,LWC V2.11 B50,2013-04-05 18:32:00,
2013-04-05 14:37:00,42.3,26.9,30.06,NW,314,4.0,11.0,54,0.00,,,0.00,LWC V2.11 B50,2013-04-05 18:37:00,
2013-04-05 14:42:00,41.8,25.9,30.06,West,280,5.0,7.0,53,0.00,,,0.00,LWC V2.11 B50,2013-04-05 18:42:00,
2013-04-05 14:48:00,42.1,25.8,30.06,WNW,298,12.0,17.0,52,0.00,,,0.00,LWC V2.11 B50,2013-04-05 18:48:00,
2013-04-05 14:53:00,41.7,24.9,30.06,NW,314,4.0,9.0,51,0.00,,,0.00,LWC V2.11 B50,2013-04-05 18:53:00,
2013-04-05 14:58:00,41.2,24.9,30.06,WNW,298,3.0,10.0,52,0.00,,,0.00,LWC V2.11 B50,2013-04-05 18:58:00,
2013-04-05 15:03:00,41.4,25.6,30.06,North,355,5.0,16.0,53,0.00,,,0.00,LWC V2.11 B50,2013-04-05 19:03:00,
2013-04-05 15:08:00,41.6,24.8,30.06,NNW,339,6.0,14.0,51,0.00,,,0.00,LWC V2.11 B50,2013-04-05 19:08:00,
2013-04-05 15:13:00,41.3,25.0,30.06,WNW,296,6.0,11.0,52,0.00,,,0.00,LWC V2.11 B50,2013-04-05 19:13:00,
2013-04-05 15:18:00,40.9,25.6,30.06,NNW,340,3.0,7.0,54,0.00,,,0.00,LWC V2.11 B50,2013-04-05 19:18:00,
2013-04-05 15:23:00,41.2,25.4,30.06,NW,309,4.0,12.0,53,0.00,,,0.00,LWC V2.11 B50,2013-04-05 19:23:00,
2013-04-05 15:28:00,41.2,25.4,30.06,NNW,339,6.0,12.0,53,0.00,,,0.00,LWC V2.11 B50,2013-04-05 19:28:00,
2013-04-05 15:33:00,41.2,25.4,30.06,WNW,300,3.0,11.0,53,0.00,,,0.00,LWC V2.11 B50,2013-04-05 19:33:00,
2013-04-05 15:38:00,41.5,25.2,30.06,NW,321,4.0,12.0,52,0.00,,,0.00,LWC V2.11 B50,2013-04-05 19:38:00,
2013-04-05 15:43:00,41.3,24.6,30.06,WNW,283,3.0,15.0,51,0.00,,,0.00,LWC V2.11 B50,2013-04-05 19:43:00,
2013-04-05 15:48:00,41.3,24.6,30.06,West,267,4.0,7.0,51,0.00,,,0.00,LWC V2.11 B50,2013-04-05 19:48:00,
2013-04-05 15:53:00,41.4,26.0,30.06,NW,305,8.0,10.0,54,0.00,,,0.00,LWC V2.11 B50,2013-04-05 19:53:00,
2013-04-05 15:58:00,41.3,25.0,30.06,NW,312,3.0,11.0,52,0.00,,,0.00,LWC V2.11 B50,2013-04-05 19:58:00,
2013-04-05 16:03:00,40.8,24.6,30.06,WNW,300,5.0,18.0,52,0.00,,,0.00,LWC V2.11 B50,2013-04-05 20:03:00,
2013-04-05 16:08:00,40.2,24.5,30.06,NW,308,3.0,10.0,53,0.00,,,0.00,LWC V2.11 B50,2013-04-05 20:08:00,
2013-04-05 16:13:00,40.6,25.3,30.06,NW,308,6.0,14.0,54,0.00,,,0.00,LWC V2.11 B50,2013-04-05 20:13:00,
2013-04-05 16:18:00,41.4,25.6,30.06,NE,36,6.0,7.0,53,0.00,,,0.00,LWC V2.11 B50,2013-04-05 20:18:00,
2013-04-05 16:23:00,41.5,25.2,30.06,NW,325,8.0,15.0,52,0.00,,,0.00,LWC V2.11 B50,2013-04-05 20:23:00,
2013-04-05 16:28:00,41.3,25.5,30.07,NW,321,13.0,13.0,53,0.00,,,0.00,LWC V2.11 B50,2013-04-05 20:28:00,
2013-04-05 16:33:00,41.0,24.3,30.07,NNW,342,9.0,12.0,51,0.00,,,0.00,LWC V2.11 B50,2013-04-05 20:33:00,
2013-04-05 16:38:00,40.8,24.6,30.07,NNW,346,7.0,14.0,52,0.00,,,0.00,LWC V2.11 B50,2013-04-05 20:38:00,
2013-04-05 16:43:00,41.1,25.3,30.07,WNW,295,7.0,10.0,53,0.00,,,0.00,LWC V2.11 B50,2013-04-05 20:43:00,
2013-04-05 16:48:00,41.0,25.6,30.07,NNW,334,6.0,15.0,54,0.00,,,0.00,LWC V2.11 B50,2013-04-05 20:48:00,
2013-04-05 16:53:00,40.8,25.0,30.07,NW,323,6.0,9.0,53,0.00,,,0.00,LWC V2.11 B50,2013-04-05 20:53:00,
2013-04-05 16:58:00,41.2,25.8,30.07,NW,321,3.0,11.0,54,0.00,,,0.00,LWC V2.11 B50,2013-04-05 20:58:00,
2013-04-05 17:03:00,40.9,25.1,30.07,North,354,3.0,12.0,53,0.00,,,0.00,LWC V2.11 B50,2013-04-05 21:03:00,
2013-04-05 17:09:00,40.5,25.6,30.07,NNW,333,7.0,13.0,55,0.00,,,0.00,LWC V2.11 B50,2013-04-05 21:09:00,
2013-04-05 17:14:00,40.8,25.0,30.07,West,278,6.0,7.0,53,0.00,,,0.00,LWC V2.11 B50,2013-04-05 21:14:00,
2013-04-05 17:19:00,40.4,25.5,30.07,NW,306,3.0,5.0,55,0.00,,,0.00,LWC V2.11 B50,2013-04-05 21:19:00,
2013-04-05 17:24:00,40.1,25.2,30.08,NNW,327,13.0,13.0,55,0.00,,,0.00,LWC V2.11 B50,2013-04-05 21:24:00,
2013-04-05 17:29:00,39.6,24.8,30.08,WNW,290,3.0,12.0,55,0.00,,,0.00,LWC V2.11 B50,2013-04-05 21:29:00,
2013-04-05 17:36:00,39.2,25.7,30.08,NW,318,8.0,10.0,58,0.00,,,0.00,LWC V2.11 B50,2013-04-05 21:36:00,
2013-04-05 17:41:00,38.9,25.0,30.08,NNW,329,10.0,12.0,57,0.00,,,0.00,LWC V2.11 B50,2013-04-05 21:41:00,
2013-04-05 17:47:00,38.9,25.0,30.08,NNW,344,5.0,7.0,57,0.00,,,0.00,LWC V2.11 B50,2013-04-05 21:47:00,
2013-04-05 17:52:00,38.7,25.2,30.09,NW,309,4.0,11.0,58,0.00,,,0.00,LWC V2.11 B50,2013-04-05 21:52:00,
2013-04-05 17:57:00,38.7,25.2,30.09,NNW,336,7.0,11.0,58,0.00,,,0.00,LWC V2.11 B50,2013-04-05 21:57:00,
2013-04-05 18:02:00,38.4,24.9,30.09,NNW,335,10.0,10.0,58,0.00,,,0.00,LWC V2.11 B50,2013-04-05 22:02:00,
2013-04-05 18:07:00,38.7,25.6,30.09,NW,321,6.0,7.0,59,0.00,,,0.00,LWC V2.11 B50,2013-04-05 22:07:00,
2013-04-05 18:12:00,38.9,25.4,30.09,NW,325,7.0,9.0,58,0.00,,,0.00,LWC V2.11 B50,2013-04-05 22:12:00,
2013-04-05 18:17:00,38.8,25.3,30.09,WNW,300,5.0,7.0,58,0.00,,,0.00,LWC V2.11 B50,2013-04-05 22:17:00,
2013-04-05 18:22:00,38.6,25.1,30.10,NW,309,3.0,7.0,58,0.00,,,0.00,LWC V2.11 B50,2013-04-05 22:22:00,
2013-04-05 18:27:00,38.4,24.5,30.10,WNW,301,3.0,14.0,57,0.00,,,0.00,LWC V2.11 B50,2013-04-05 22:27:00,
2013-04-05 18:32:00,38.3,24.8,30.10,NW,311,2.0,9.0,58,0.00,,,0.00,LWC V2.11 B50,2013-04-05 22:32:00,
2013-04-05 18:37:00,38.1,24.6,30.10,NNW,348,5.0,9.0,58,0.00,,,0.00,LWC V2.11 B50,2013-04-05 22:37:00,
2013-04-05 18:42:00,37.8,24.8,30.11,NNW,329,7.0,10.0,59,0.00,,,0.00,LWC V2.11 B50,2013-04-05 22:42:00,
2013-04-05 18:47:00,37.8,25.2,30.11,WNW,295,4.0,9.0,60,0.00,,,0.00,LWC V2.11 B50,2013-04-05 22:47:00,
2013-04-05 18:52:00,37.5,24.9,30.11,NNW,335,9.0,13.0,60,0.00,,,0.00,LWC V2.11 B50,2013-04-05 22:52:00,
2013-04-05 18:57:00,37.1,24.5,30.11,NW,305,4.0,16.0,60,0.00,,,0.00,LWC V2.11 B50,2013-04-05 22:57:00,
2013-04-05 19:02:00,36.9,24.7,30.11,NW,311,3.0,6.0,61,0.00,,,0.00,LWC V2.11 B50,2013-04-05 23:02:00,
2013-04-05 19:07:00,36.7,24.9,30.11,NW,323,3.0,6.0,62,0.00,,,0.00,LWC V2.11 B50,2013-04-05 23:07:00,
2013-04-05 19:12:00,36.3,24.5,30.12,NW,315,2.0,5.0,62,0.00,,,0.00,LWC V2.11 B50,2013-04-05 23:12:00,
2013-04-05 19:17:00,36.0,24.3,30.12,North,1,5.0,7.0,62,0.00,,,0.00,LWC V2.11 B50,2013-04-05 23:17:00,
2013-04-05 19:22:00,35.7,24.4,30.12,NNW,332,5.0,7.0,63,0.00,,,0.00,LWC V2.11 B50,2013-04-05 23:22:00,
2013-04-05 19:27:00,35.3,24.0,30.12,NW,308,1.0,2.0,63,0.00,,,0.00,LWC V2.11 B50,2013-04-05 23:27:00,
2013-04-05 19:32:00,35.0,24.1,30.12,NW,324,2.0,9.0,64,0.00,,,0.00,LWC V2.11 B50,2013-04-05 23:32:00,
2013-04-05 19:37:00,34.6,24.1,30.12,NW,314,5.0,6.0,65,0.00,,,0.00,LWC V2.11 B50,2013-04-05 23:37:00,
2013-04-05 19:42:00,34.3,24.1,30.13,NW,316,1.0,3.0,66,0.00,,,0.00,LWC V2.11 B50,2013-04-05 23:42:00,
2013-04-05 19:47:00,33.9,24.1,30.13,WNW,298,1.0,6.0,67,0.00,,,0.00,LWC V2.11 B50,2013-04-05 23:47:00,
2013-04-05 19:52:00,33.5,23.7,30.13,NW,322,2.0,10.0,67,0.00,,,0.00,LWC V2.11 B50,2013-04-05 23:52:00,
2013-04-05 19:57:00,33.6,23.8,30.13,NW,318,3.0,8.0,67,0.00,,,0.00,LWC V2.11 B50,2013-04-05 23:57:00,
2013-04-05 20:02:00,33.4,24.0,30.13,NW,312,5.0,6.0,68,0.00,,,0.00,LWC V2.11 B50,2013-04-06 00:02:00,
2013-04-05 20:07:00,33.1,24.1,30.13,NNW,334,4.0,6.0,69,0.00,,,0.00,LWC V2.11 B50,2013-04-06 00:07:00,
2013-04-05 20:12:00,32.8,23.8,30.14,NW,321,1.0,7.0,69,0.00,,,0.00,LWC V2.11 B50,2013-04-06 00:12:00,
2013-04-05 20:17:00,32.4,23.7,30.14,NW,309,1.0,3.0,70,0.00,,,0.00,LWC V2.11 B50,2013-04-06 00:17:00,
2013-04-05 20:22:00,32.1,23.4,30.14,NW,324,0.0,0.0,70,0.00,,,0.00,LWC V2.11 B50,2013-04-06 00:22:00,
2013-04-05 20:27:00,31.8,23.5,30.14,NNE,25,4.0,4.0,71,0.00,,,0.00,LWC V2.11 B50,2013-04-06 00:27:00,
2013-04-05 20:32:00,31.6,23.3,30.15,NW,323,0.0,3.0,71,0.00,,,0.00,LWC V2.11 B50,2013-04-06 00:32:00,
2013-04-05 20:37:00,31.4,23.4,30.15,NW,309,0.0,1.0,72,0.00,,,0.00,LWC V2.11 B50,2013-04-06 00:37:00,
2013-04-05 20:42:00,31.2,23.2,30.15,NW,321,0.0,0.0,72,0.00,,,0.00,LWC V2.11 B50,2013-04-06 00:42:00,
2013-04-05 20:47:00,30.9,23.0,30.15,NW,326,0.0,1.0,72,0.00,,,0.00,LWC V2.11 B50,2013-04-06 00:47:00,
2013-04-05 20:52:00,30.9,23.0,30.16,WNW,295,0.0,1.0,72,0.00,,,0.00,LWC V2.11 B50,2013-04-06 00:52:00,
2013-04-05 20:57:00,30.7,22.8,30.16,WNW,288,0.0,0.0,72,0.00,,,0.00,LWC V2.11 B50,2013-04-06 00:57:00,
2013-04-05 21:02:00,30.7,22.4,30.16,WNW,293,3.0,3.0,71,0.00,,,0.00,LWC V2.11 B50,2013-04-06 01:02:00,
2013-04-05 21:07:00,30.7,22.4,30.17,NW,320,0.0,1.0,71,0.00,,,0.00,LWC V2.11 B50,2013-04-06 01:07:00,
2013-04-05 21:12:00,30.6,22.3,30.17,NW,315,0.0,3.0,71,0.00,,,0.00,LWC V2.11 B50,2013-04-06 01:12:00,
2013-04-05 21:17:00,30.4,22.1,30.17,NW,313,1.0,1.0,71,0.00,,,0.00,LWC V2.11 B50,2013-04-06 01:17:00,
2013-04-05 21:23:00,30.3,22.0,30.17,NW,304,2.0,5.0,71,0.00,,,0.00,LWC V2.11 B50,2013-04-06 01:23:00,
2013-04-05 21:28:00,30.3,21.7,30.18,NNW,335,1.0,4.0,70,0.00,,,0.00,LWC V2.11 B50,2013-04-06 01:28:00,
2013-04-05 21:33:00,30.1,21.9,30.18,NW,320,0.0,1.0,71,0.00,,,0.00,LWC V2.11 B50,2013-04-06 01:33:00,
2013-04-05 21:38:00,30.0,21.8,30.18,NW,320,1.0,2.0,71,0.00,,,0.00,LWC V2.11 B50,2013-04-06 01:38:00,
2013-04-05 21:43:00,29.9,21.7,30.18,WNW,290,2.0,3.0,71,0.00,,,0.00,LWC V2.11 B50,2013-04-06 01:43:00,
2013-04-05 21:48:00,29.8,21.6,30.18,NW,317,1.0,1.0,71,0.00,,,0.00,LWC V2.11 B50,2013-04-06 01:48:00,
2013-04-05 21:53:00,29.6,21.4,30.19,West,260,0.0,1.0,71,0.00,,,0.00,LWC V2.11 B50,2013-04-06 01:53:00,
2013-04-05 21:58:00,29.5,21.3,30.19,NW,305,0.0,1.0,71,0.00,,,0.00,LWC V2.11 B50,2013-04-06 01:58:00,
2013-04-05 22:03:00,29.3,21.1,30.19,NW,313,0.0,2.0,71,0.00,,,0.00,LWC V2.11 B50,2013-04-06 02:03:00,
2013-04-05 22:08:00,29.2,21.3,30.19,WNW,283,0.0,0.0,72,0.00,,,0.00,LWC V2.11 B50,2013-04-06 02:08:00,
2013-04-05 22:13:00,29.2,21.3,30.19,NNW,329,0.0,1.0,72,0.00,,,0.00,LWC V2.11 B50,2013-04-06 02:13:00,
2013-04-05 22:18:00,29.0,21.1,30.19,NW,324,0.0,0.0,72,0.00,,,0.00,LWC V2.11 B50,2013-04-06 02:18:00,
2013-04-05 22:23:00,28.9,21.0,30.20,NNW,330,0.0,0.0,72,0.00,,,0.00,LWC V2.11 B50,2013-04-06 02:23:00,
2013-04-05 22:28:00,28.8,20.9,30.20,WNW,290,0.0,1.0,72,0.00,,,0.00,LWC V2.11 B50,2013-04-06 02:28:00,
2013-04-05 22:33:00,28.7,21.2,30.20,WNW,297,0.0,1.0,73,0.00,,,0.00,LWC V2.11 B50,2013-04-06 02:33:00,
2013-04-05 22:38:00,-999.0,-99.9,-100.00,North,-999,-999.0,2.0,-999,-99.99,,,0.00,LWC V2.11 B50,2013-04-06 02:38:00,
2013-04-05 22:43:00,28.6,21.1,30.20,West,277,0.0,1.0,73,0.00,,,0.00,LWC V2.11 B50,2013-04-06 02:43:00,
2013-04-05 22:48:00,28.4,20.9,30.20,West,276,0.0,0.0,73,0.00,,,0.00,LWC V2.11 B50,2013-04-06 02:48:00,
2013-04-05 22:53:00,28.4,21.2,30.20,WNW,283,0.0,1.0,74,0.00,,,0.00,LWC V2.11 B50,2013-04-06 02:53:00,
2013-04-05 22:58:00,28.2,21.0,30.20,West,281,0.0,0.0,74,0.00,,,0.00,LWC V2.11 B50,2013-04-06 02:58:00,
2013-04-05 23:03:00,28.0,21.1,30.20,WNW,283,0.0,0.0,75,0.00,,,0.00,LWC V2.11 B50,2013-04-06 03:03:00,
2013-04-05 23:09:00,27.8,20.9,30.20,West,281,0.0,0.0,75,0.00,,,0.00,LWC V2.11 B50,2013-04-06 03:09:00,
2013-04-05 23:14:00,27.5,20.9,30.20,West,281,0.0,1.0,76,0.00,,,0.00,LWC V2.11 B50,2013-04-06 03:14:00,
2013-04-05 23:19:00,27.4,21.2,30.20,West,281,0.0,0.0,77,0.00,,,0.00,LWC V2.11 B50,2013-04-06 03:19:00,
2013-04-05 23:24:00,27.2,21.0,30.20,West,281,0.0,0.0,77,0.00,,,0.00,LWC V2.11 B50,2013-04-06 03:24:00,
2013-04-05 23:29:00,27.2,21.3,30.20,West,281,0.0,0.0,78,0.00,,,0.00,LWC V2.11 B50,2013-04-06 03:29:00,
2013-04-05 23:34:00,27.2,21.3,30.20,West,281,0.0,0.0,78,0.00,,,0.00,LWC V2.11 B50,2013-04-06 03:34:00,
2013-04-05 23:39:00,26.9,21.0,30.21,West,281,0.0,0.0,78,0.00,,,0.00,LWC V2.11 B50,2013-04-06 03:39:00,
2013-04-05 23:44:00,26.4,20.8,30.20,West,281,0.0,0.0,79,0.00,,,0.00,LWC V2.11 B50,2013-04-06 03:44:00,
2013-04-05 23:49:00,26.1,20.8,30.20,West,281,0.0,0.0,80,0.00,,,0.00,LWC V2.11 B50,2013-04-06 03:49:00,
2013-04-05 23:54:00,25.8,20.8,30.20,West,281,0.0,0.0,81,0.00,,,0.00,LWC V2.11 B50,2013-04-06 03:54:00,